Time,TemperatureF,DewpointF,PressureIn,WindDirection,WindDirectionDegrees,WindSpeedMPH,WindSpeedGustMPH,Humidity,HourlyPrecipIn,Conditions,Clouds,dailyrainin,SoftwareType,DateUTC
2013-08-22 00:01:00,79.2,64.1,30.12,South,190,0.0,0.0,60,0.00,,---,0.00,VWS V14.01,2013-08-22 05:01:00,
2013-08-22 00:06:00,79.0,64.4,30.12,South,190,0.0,0.0,61,0.00,,---,0.00,VWS V14.01,2013-08-22 05:06:00,
2013-08-22 00:11:00,78.8,64.2,30.12,SSW,209,0.0,0.0,61,0.00,,---,0.00,VWS V14.01,2013-08-22 05:11:00,
2013-08-22 00:16:00,78.8,64.2,30.12,SW,220,0.0,0.0,61,0.00,,---,0.00,VWS V14.01,2013-08-22 05:16:00,
2013-08-22 00:21:00,78.6,64.5,30.12,SW,220,0.0,0.0,62,0.00,,---,0.00,VWS V14.01,2013-08-22 05:21:00,
2013-08-22 00:26:00,78.6,64.5,30.12,SW,220,0.0,0.0,62,0.00,,---,0.00,VWS V14.01,2013-08-22 05:26:00,
2013-08-22 00:31:00,78.4,64.3,30.12,SW,220,0.0,0.0,62,0.00,,---,0.00,VWS V14.01,2013-08-22 05:31:00,
2013-08-22 00:36:00,78.4,64.3,30.12,SW,220,0.0,0.0,62,0.00,,---,0.00,VWS V14.01,2013-08-22 05:36:00,
2013-08-22 00:41:00,78.1,64.5,30.12,SW,220,0.0,0.0,63,0.00,,---,0.00,VWS V14.01,2013-08-22 05:41:00,
2013-08-22 00:46:00,78.1,64.5,30.12,SW,220,0.0,0.0,63,0.00,,---,0.00,VWS V14.01,2013-08-22 05:46:00,
2013-08-22 01:03:00,78.1,64.5,30.12,SW,220,0.0,0.0,63,0.00,,---,0.00,VWS V14.01,2013-08-22 06:03:00,
2013-08-22 01:08:00,77.5,64.9,30.09,SW,220,0.0,0.0,65,0.00,,---,0.00,VWS V14.01,2013-08-22 06:08:00,
2013-08-22 01:13:00,77.5,64.9,30.09,SW,220,0.0,0.0,65,0.00,,---,0.00,VWS V14.01,2013-08-22 06:13:00,
2013-08-22 01:18:00,77.4,64.7,30.09,SW,220,0.0,0.0,65,0.00,,---,0.00,VWS V14.01,2013-08-22 06:18:00,
2013-08-22 01:23:00,77.4,64.7,30.12,SW,220,0.0,0.0,65,0.00,,---,0.00,VWS V14.01,2013-08-22 06:23:00,
2013-08-22 01:28:00,77.2,64.9,30.12,SW,220,0.0,0.0,66,0.00,,---,0.00,VWS V14.01,2013-08-22 06:28:00,
2013-08-22 01:33:00,77.2,64.9,30.12,SW,220,0.0,0.0,66,0.00,,---,0.00,VWS V14.01,2013-08-22 06:33:00,
2013-08-22 01:38:00,77.2,64.9,30.12,SW,220,0.0,0.0,66,0.00,,---,0.00,VWS V14.01,2013-08-22 06:38:00,
2013-08-22 01:43:00,77.2,65.4,30.12,SW,220,0.0,0.0,67,0.00,,---,0.00,VWS V14.01,2013-08-22 06:43:00,
2013-08-22 01:48:00,77.2,65.4,30.12,SE,133,0.0,0.0,67,0.00,,---,0.00,VWS V14.01,2013-08-22 06:48:00,
2013-08-22 01:53:00,77.2,65.8,30.12,SSW,199,0.0,0.0,68,0.00,,---,0.00,VWS V14.01,2013-08-22 06:53:00,
2013-08-22 01:58:00,77.2,65.8,30.12,WSW,258,0.0,0.0,68,0.00,,---,0.00,VWS V14.01,2013-08-22 06:58:00,
2013-08-22 02:03:00,77.2,65.8,30.12,WSW,258,0.0,0.0,68,0.00,,---,0.00,VWS V14.01,2013-08-22 07:03:00,
2013-08-22 02:08:00,77.2,65.8,30.09,WSW,258,0.0,0.0,68,0.00,,---,0.00,VWS V14.01,2013-08-22 07:08:00,
2013-08-22 02:13:00,77.2,65.8,30.09,WSW,258,0.0,0.0,68,0.00,,---,0.00,VWS V14.01,2013-08-22 07:13:00,
2013-08-22 02:18:00,77.2,65.8,30.09,WSW,258,0.0,0.0,68,0.00,,---,0.00,VWS V14.01,2013-08-22 07:18:00,
2013-08-22 02:23:00,77.0,66.1,30.09,WSW,258,0.0,0.0,69,0.00,,---,0.00,VWS V14.01,2013-08-22 07:23:00,
2013-08-22 02:28:00,77.0,66.1,30.09,WSW,258,0.0,0.0,69,0.00,,---,0.00,VWS V14.01,2013-08-22 07:28:00,
2013-08-22 02:33:00,76.8,65.9,30.09,WSW,258,0.0,0.0,69,0.00,,---,0.00,VWS V14.01,2013-08-22 07:33:00,
2013-08-22 02:38:00,76.8,66.3,30.09,WSW,258,0.0,0.0,70,0.00,,---,0.00,VWS V14.01,2013-08-22 07:38:00,
2013-08-22 02:43:00,76.8,66.3,30.09,WSW,258,0.0,0.0,70,0.00,,---,0.00,VWS V14.01,2013-08-22 07:43:00,
2013-08-22 02:48:00,76.8,66.3,30.09,WSW,258,0.0,0.0,70,0.00,,---,0.00,VWS V14.01,2013-08-22 07:48:00,
2013-08-22 02:53:00,76.6,66.1,30.09,WSW,258,0.0,0.0,70,0.00,,---,0.00,VWS V14.01,2013-08-22 07:53:00,
2013-08-22 02:58:00,76.6,66.1,30.09,WSW,258,0.0,0.0,70,0.00,,---,0.00,VWS V14.01,2013-08-22 07:58:00,
2013-08-22 03:03:00,76.5,66.0,30.09,WSW,258,0.0,0.0,70,0.00,,---,0.00,VWS V14.01,2013-08-22 08:03:00,
2013-08-22 03:08:00,76.5,66.4,30.09,WSW,258,0.0,0.0,71,0.00,,---,0.00,VWS V14.01,2013-08-22 08:08:00,
2013-08-22 03:13:00,76.5,66.4,30.09,WSW,258,0.0,0.0,71,0.00,,---,0.00,VWS V14.01,2013-08-22 08:13:00,
2013-08-22 03:18:00,76.5,66.8,30.09,WSW,258,0.0,0.0,72,0.00,,---,0.00,VWS V14.01,2013-08-22 08:18:00,
2013-08-22 03:23:00,76.3,66.6,30.09,WSW,258,0.0,0.0,72,0.00,,---,0.00,VWS V14.01,2013-08-22 08:23:00,
2013-08-22 03:28:00,76.3,66.6,30.09,WSW,258,0.0,0.0,72,0.00,,---,0.00,VWS V14.01,2013-08-22 08:28:00,
2013-08-22 03:33:00,76.3,66.6,30.09,WSW,258,0.0,0.0,72,0.00,,---,0.00,VWS V14.01,2013-08-22 08:33:00,
2013-08-22 03:38:00,76.1,66.4,30.09,WSW,258,0.0,0.0,72,0.00,,---,0.00,VWS V14.01,2013-08-22 08:38:00,
2013-08-22 03:43:00,76.1,66.4,30.09,WSW,258,0.0,0.0,72,0.00,,---,0.00,VWS V14.01,2013-08-22 08:43:00,
2013-08-22 03:48:00,75.9,66.2,30.09,WSW,258,0.0,0.0,72,0.00,,---,0.00,VWS V14.01,2013-08-22 08:48:00,
2013-08-22 03:53:00,75.7,66.1,30.09,WSW,258,0.0,0.0,72,0.00,,---,0.00,VWS V14.01,2013-08-22 08:53:00,
2013-08-22 03:58:00,75.7,66.5,30.09,WSW,258,0.0,0.0,73,0.00,,---,0.00,VWS V14.01,2013-08-22 08:58:00,
2013-08-22 04:03:00,75.7,66.5,30.09,WSW,258,0.0,0.0,73,0.00,,---,0.00,VWS V14.01,2013-08-22 09:03:00,
2013-08-22 04:08:00,75.6,66.3,30.09,WSW,258,0.0,0.0,73,0.00,,---,0.00,VWS V14.01,2013-08-22 09:08:00,
2013-08-22 04:13:00,75.6,66.3,30.09,WSW,258,0.0,0.0,73,0.00,,---,0.00,VWS V14.01,2013-08-22 09:13:00,
2013-08-22 04:18:00,75.6,66.7,30.09,WSW,258,0.0,0.0,74,0.00,,---,0.00,VWS V14.01,2013-08-22 09:18:00,
2013-08-22 04:23:00,75.4,66.5,30.09,WSW,258,0.0,0.0,74,0.00,,---,0.00,VWS V14.01,2013-08-22 09:23:00,
2013-08-22 04:28:00,75.4,66.5,30.09,WSW,258,0.0,0.0,74,0.00,,---,0.00,VWS V14.01,2013-08-22 09:28:00,
2013-08-22 04:33:00,75.2,66.3,30.09,WSW,258,0.0,0.0,74,0.00,,---,0.00,VWS V14.01,2013-08-22 09:33:00,
2013-08-22 04:38:00,75.2,66.3,30.09,WSW,258,0.0,0.0,74,0.00,,---,0.00,VWS V14.01,2013-08-22 09:38:00,
2013-08-22 04:43:00,75.0,66.6,30.09,WSW,258,0.0,0.0,75,0.00,,---,0.00,VWS V14.01,2013-08-22 09:43:00,
2013-08-22 04:48:00,75.0,66.6,30.09,WSW,258,0.0,0.0,75,0.00,,---,0.00,VWS V14.01,2013-08-22 09:48:00,
2013-08-22 04:53:00,74.8,66.4,30.09,WSW,258,0.0,0.0,75,0.00,,---,0.00,VWS V14.01,2013-08-22 09:53:00,
2013-08-22 04:58:00,74.8,66.4,30.09,WSW,258,0.0,0.0,75,0.00,,---,0.00,VWS V14.01,2013-08-22 09:58:00,
2013-08-22 05:03:00,74.8,66.4,30.09,WSW,258,0.0,0.0,75,0.00,,---,0.00,VWS V14.01,2013-08-22 10:03:00,
2013-08-22 05:08:00,74.8,66.8,30.09,WSW,258,0.0,0.0,76,0.00,,---,0.00,VWS V14.01,2013-08-22 10:08:00,
2013-08-22 05:13:00,74.7,66.6,30.09,WSW,258,0.0,0.0,76,0.00,,---,0.00,VWS V14.01,2013-08-22 10:13:00,
2013-08-22 05:18:00,74.7,66.6,30.09,WSW,258,0.0,0.0,76,0.00,,---,0.00,VWS V14.01,2013-08-22 10:18:00,
2013-08-22 05:23:00,74.5,66.4,30.09,WSW,258,0.0,0.0,76,0.00,,---,0.00,VWS V14.01,2013-08-22 10:23:00,
2013-08-22 05:28:00,74.3,66.2,30.09,WSW,258,0.0,0.0,76,0.00,,---,0.00,VWS V14.01,2013-08-22 10:28:00,
2013-08-22 05:33:00,74.3,66.2,30.09,WSW,258,0.0,0.0,76,0.00,,---,0.00,VWS V14.01,2013-08-22 10:33:00,
2013-08-22 05:38:00,74.3,66.2,30.09,WSW,258,0.0,0.0,76,0.00,,---,0.00,VWS V14.01,2013-08-22 10:38:00,
2013-08-22 05:43:00,74.3,66.2,30.09,WSW,258,0.0,0.0,76,0.00,,---,0.00,VWS V14.01,2013-08-22 10:43:00,
2013-08-22 05:48:00,74.3,66.2,30.09,WSW,258,0.0,0.0,76,0.00,,---,0.00,VWS V14.01,2013-08-22 10:48:00,
2013-08-22 07:27:00,74.1,66.8,30.12,WSW,258,0.0,0.0,78,0.00,,---,0.00,VWS V14.01,2013-08-22 12:27:00,
2013-08-22 07:32:00,74.3,67.0,30.12,WSW,258,0.0,0.0,78,0.00,,---,0.00,VWS V14.01,2013-08-22 12:32:00,
2013-08-22 07:37:00,74.5,67.2,30.12,WSW,258,0.0,0.0,78,0.00,,---,0.00,VWS V14.01,2013-08-22 12:37:00,
2013-08-22 07:42:00,74.7,67.3,30.12,WSW,258,0.0,0.0,78,0.00,,---,0.00,VWS V14.01,2013-08-22 12:42:00,
2013-08-22 07:47:00,74.8,67.2,30.12,WSW,258,0.0,0.0,77,0.00,,---,0.00,VWS V14.01,2013-08-22 12:47:00,
2013-08-22 07:52:00,75.2,67.5,30.15,WSW,258,0.0,0.0,77,0.00,,---,0.00,VWS V14.01,2013-08-22 12:52:00,
2013-08-22 07:57:00,75.4,67.7,30.15,WSW,258,0.0,0.0,77,0.00,,---,0.00,VWS V14.01,2013-08-22 12:57:00,
2013-08-22 08:00:00,75.6,67.8,30.15,WSW,258,0.0,0.0,77,0.00,,---,0.00,VWS V14.01,2013-08-22 13:00:00,
2013-08-22 08:05:00,75.9,68.2,30.15,WSW,258,0.0,0.0,77,0.00,,---,0.00,VWS V14.01,2013-08-22 13:05:00,
2013-08-22 08:10:00,76.1,68.0,30.15,WSW,258,0.0,0.0,76,0.00,,---,0.00,VWS V14.01,2013-08-22 13:10:00,
2013-08-22 08:15:00,76.5,68.3,30.15,WSW,258,0.0,0.0,76,0.00,,---,0.00,VWS V14.01,2013-08-22 13:15:00,
2013-08-22 08:20:00,76.6,68.5,30.15,WSW,258,0.0,0.0,76,0.00,,---,0.00,VWS V14.01,2013-08-22 13:20:00,
2013-08-22 08:25:00,77.0,68.5,30.15,WSW,258,0.0,0.0,75,0.00,,---,0.00,VWS V14.01,2013-08-22 13:25:00,
2013-08-22 08:30:00,77.4,68.8,30.15,WSW,258,0.0,0.0,75,0.00,,---,0.00,VWS V14.01,2013-08-22 13:30:00,
2013-08-22 08:35:00,77.7,68.8,30.15,ENE,76,0.0,0.0,74,0.00,,---,0.00,VWS V14.01,2013-08-22 13:35:00,
2013-08-22 08:40:00,78.1,69.1,30.15,ENE,77,0.0,0.0,74,0.00,,---,0.00,VWS V14.01,2013-08-22 13:40:00,
2013-08-22 08:45:00,78.4,69.1,30.15,ENE,77,0.0,0.0,73,0.00,,---,0.00,VWS V14.01,2013-08-22 13:45:00,
2013-08-22 08:50:00,78.8,69.0,30.15,ENE,77,0.0,0.0,72,0.00,,---,0.00,VWS V14.01,2013-08-22 13:50:00,
2013-08-22 08:55:00,79.0,69.2,30.15,ENE,77,0.0,0.0,72,0.00,,---,0.00,VWS V14.01,2013-08-22 13:55:00,
2013-08-22 09:00:00,79.3,69.1,30.15,ENE,77,0.0,0.0,71,0.00,,---,0.00,VWS V14.01,2013-08-22 14:00:00,
2013-08-22 09:05:00,79.9,69.2,30.15,ENE,77,0.0,0.0,70,0.00,,---,0.00,VWS V14.01,2013-08-22 14:05:00,
2013-08-22 09:10:00,80.2,69.2,30.15,East,80,0.0,0.0,69,0.00,,---,0.00,VWS V14.01,2013-08-22 14:10:00,
2013-08-22 09:15:00,80.8,69.2,30.15,East,80,0.0,0.0,68,0.00,,---,0.00,VWS V14.01,2013-08-22 14:15:00,
2013-08-22 09:20:00,81.5,69.5,30.15,ENE,78,0.0,0.0,67,0.00,,---,0.00,VWS V14.01,2013-08-22 14:20:00,
2013-08-22 09:25:00,82.0,69.6,30.15,ENE,78,0.0,0.0,66,0.00,,---,0.00,VWS V14.01,2013-08-22 14:25:00,
2013-08-22 09:30:00,82.8,69.3,30.15,ENE,78,0.0,0.0,64,0.00,,---,0.00,VWS V14.01,2013-08-22 14:30:00,
2013-08-22 09:35:00,83.5,69.6,30.15,NNE,31,0.0,0.0,63,0.00,,---,0.00,VWS V14.01,2013-08-22 14:35:00,
2013-08-22 09:40:00,84.2,69.3,30.15,West,266,0.0,0.0,61,0.00,,---,0.00,VWS V14.01,2013-08-22 14:40:00,
2013-08-22 09:45:00,85.1,69.2,30.15,ESE,112,0.0,0.0,59,0.00,,---,0.00,VWS V14.01,2013-08-22 14:45:00,
2013-08-22 09:50:00,85.8,68.3,30.15,South,181,3.1,3.1,56,0.00,,---,0.00,VWS V14.01,2013-08-22 14:50:00,
2013-08-22 09:55:00,86.9,68.3,30.15,South,191,2.2,3.1,54,0.00,,---,0.00,VWS V14.01,2013-08-22 14:55:00,
2013-08-22 10:00:00,87.6,67.8,30.15,SW,229,0.0,0.0,52,0.00,,---,0.00,VWS V14.01,2013-08-22 15:00:00,
2013-08-22 10:05:00,88.9,67.8,30.15,NE,34,0.0,0.0,50,0.00,,---,0.00,VWS V14.01,2013-08-22 15:05:00,
2013-08-22 10:10:00,89.4,67.2,30.15,WNW,283,0.0,0.0,48,0.00,,---,0.00,VWS V14.01,2013-08-22 15:10:00,
2013-08-22 10:15:00,89.8,66.3,30.15,West,273,0.0,0.0,46,0.00,,---,0.00,VWS V14.01,2013-08-22 15:15:00,
2013-08-22 10:20:00,91.0,66.1,30.15,WSW,248,0.0,0.0,44,0.00,,---,0.00,VWS V14.01,2013-08-22 15:20:00,
2013-08-22 10:25:00,91.2,65.6,30.15,WSW,252,0.0,0.0,43,0.00,,---,0.00,VWS V14.01,2013-08-22 15:25:00,
2013-08-22 10:30:00,91.4,64.4,30.15,NW,322,0.0,2.2,41,0.00,,---,0.00,VWS V14.01,2013-08-22 15:30:00,
2013-08-22 10:35:00,92.3,64.5,30.15,NW,322,0.0,0.0,40,0.00,,---,0.00,VWS V14.01,2013-08-22 15:35:00,
2013-08-22 10:40:00,93.0,64.4,30.15,South,180,3.1,3.1,39,0.00,,---,0.00,VWS V14.01,2013-08-22 15:40:00,
2013-08-22 10:45:00,93.2,63.8,30.15,SSW,211,0.0,0.0,38,0.00,,---,0.00,VWS V14.01,2013-08-22 15:45:00,
2013-08-22 10:50:00,94.6,64.3,30.12,NNE,18,0.0,0.0,37,0.00,,---,0.00,VWS V14.01,2013-08-22 15:50:00,
2013-08-22 10:55:00,95.2,63.2,30.12,SW,223,0.0,0.0,35,0.00,,---,0.00,VWS V14.01,2013-08-22 15:55:00,
2013-08-22 11:00:00,93.6,63.4,30.12,SW,220,0.0,0.0,37,0.00,,---,0.00,VWS V14.01,2013-08-22 16:00:00,
2013-08-22 11:05:00,94.8,62.1,30.15,SW,217,2.7,2.7,34,0.00,,---,0.00,VWS V14.01,2013-08-22 16:05:00,
2013-08-22 11:10:00,95.9,61.3,30.15,South,187,2.7,2.7,32,0.00,,---,0.00,VWS V14.01,2013-08-22 16:10:00,
2013-08-22 11:15:00,96.8,61.2,30.15,South,187,0.0,0.0,31,0.00,,---,0.00,VWS V14.01,2013-08-22 16:15:00,
2013-08-22 11:20:00,97.7,62.0,30.12,North,1,2.7,2.7,31,0.00,,---,0.00,VWS V14.01,2013-08-22 16:20:00,
2013-08-22 11:25:00,98.1,60.4,30.12,South,169,0.0,0.0,29,0.00,,---,0.00,VWS V14.01,2013-08-22 16:25:00,
2013-08-22 11:30:00,97.2,59.6,30.12,SSW,196,0.0,3.1,29,0.00,,---,0.00,VWS V14.01,2013-08-22 16:30:00,
2013-08-22 11:35:00,98.1,59.4,30.12,South,179,2.7,3.6,28,0.00,,---,0.00,VWS V14.01,2013-08-22 16:35:00,
2013-08-22 11:40:00,99.3,59.5,30.12,NNE,14,0.0,2.2,27,0.00,,---,0.00,VWS V14.01,2013-08-22 16:40:00,
2013-08-22 11:45:00,100.2,60.2,30.12,SW,236,0.0,0.0,27,0.00,,---,0.00,VWS V14.01,2013-08-22 16:45:00,
2013-08-22 11:50:00,101.1,59.9,30.12,North,10,0.0,4.0,26,0.00,,---,0.00,VWS V14.01,2013-08-22 16:50:00,
2013-08-22 11:55:00,100.0,59.0,30.12,South,170,0.0,0.0,26,0.00,,---,0.00,VWS V14.01,2013-08-22 16:55:00,
2013-08-22 12:00:00,97.5,58.0,30.12,South,170,0.0,0.0,27,0.00,,---,0.00,VWS V14.01,2013-08-22 17:00:00,
2013-08-22 12:04:00,95.9,58.6,30.12,South,170,0.0,0.0,29,0.00,,---,0.00,VWS V14.01,2013-08-22 17:04:00,
2013-08-22 12:09:00,96.4,59.0,30.12,SW,223,0.0,0.0,29,0.00,,---,0.00,VWS V14.01,2013-08-22 17:09:00,
2013-08-22 12:14:00,98.4,58.7,30.12,South,178,2.7,3.6,27,0.00,,---,0.00,VWS V14.01,2013-08-22 17:14:00,
2013-08-22 12:19:00,99.7,58.7,30.12,SSW,203,2.2,2.7,26,0.00,,---,0.00,VWS V14.01,2013-08-22 17:19:00,
2013-08-22 12:24:00,99.9,57.8,30.12,SW,227,3.1,3.1,25,0.00,,---,0.00,VWS V14.01,2013-08-22 17:24:00,
2013-08-22 12:29:00,101.1,58.8,30.12,NNE,31,0.0,0.0,25,0.00,,---,0.00,VWS V14.01,2013-08-22 17:29:00,
2013-08-22 12:34:00,101.5,59.1,30.12,SSW,194,0.0,3.6,25,0.00,,---,0.00,VWS V14.01,2013-08-22 17:34:00,
2013-08-22 12:39:00,101.1,58.8,30.12,West,274,0.0,0.0,25,0.00,,---,0.00,VWS V14.01,2013-08-22 17:39:00,
2013-08-22 12:44:00,101.5,59.1,30.12,South,180,0.0,0.0,25,0.00,,---,0.00,VWS V14.01,2013-08-22 17:44:00,
2013-08-22 12:49:00,100.4,58.2,30.12,ESE,121,0.0,0.0,25,0.00,,---,0.00,VWS V14.01,2013-08-22 17:49:00,
2013-08-22 12:54:00,100.9,58.7,30.12,SE,140,0.0,0.0,25,0.00,,---,0.00,VWS V14.01,2013-08-22 17:54:00,
2013-08-22 12:59:00,98.8,58.0,30.12,West,265,0.0,0.0,26,0.00,,---,0.00,VWS V14.01,2013-08-22 17:59:00,
2013-08-22 13:04:00,97.5,56.9,30.12,WSW,246,0.0,0.0,26,0.00,,---,0.00,VWS V14.01,2013-08-22 18:04:00,
2013-08-22 13:09:00,99.5,58.6,30.12,SSE,163,0.0,0.0,26,0.00,,---,0.00,VWS V14.01,2013-08-22 18:09:00,
2013-08-22 13:14:00,99.5,56.3,30.12,WNW,296,0.0,2.7,24,0.00,,---,0.00,VWS V14.01,2013-08-22 18:14:00,
2013-08-22 13:19:00,99.3,56.2,30.09,South,185,0.0,2.7,24,0.00,,---,0.00,VWS V14.01,2013-08-22 18:19:00,
2013-08-22 13:24:00,97.3,56.8,30.09,SSE,164,0.0,0.0,26,0.00,,---,0.00,VWS V14.01,2013-08-22 18:24:00,
2013-08-22 13:29:00,97.3,56.8,30.09,SSE,162,2.7,3.1,26,0.00,,---,0.00,VWS V14.01,2013-08-22 18:29:00,
2013-08-22 13:34:00,98.4,56.6,30.09,WNW,287,0.0,2.7,25,0.00,,---,0.00,VWS V14.01,2013-08-22 18:34:00,
2013-08-22 13:39:00,99.3,57.3,30.09,NNE,16,2.2,2.7,25,0.00,,---,0.00,VWS V14.01,2013-08-22 18:39:00,
2013-08-22 13:44:00,99.1,56.0,30.09,North,0,0.0,2.7,24,0.00,,---,0.00,VWS V14.01,2013-08-22 18:44:00,
2013-08-22 13:49:00,99.7,56.5,30.09,SSE,157,2.2,2.2,24,0.00,,---,0.00,VWS V14.01,2013-08-22 18:49:00,
2013-08-22 13:54:00,98.4,56.6,30.09,SSW,194,0.0,2.7,25,0.00,,---,0.00,VWS V14.01,2013-08-22 18:54:00,
2013-08-22 13:59:00,99.0,57.0,30.09,SSW,194,0.0,0.0,25,0.00,,---,0.00,VWS V14.01,2013-08-22 18:59:00,
2013-08-22 14:04:00,97.9,56.1,30.09,SSW,197,0.0,0.0,25,0.00,,---,0.00,VWS V14.01,2013-08-22 19:04:00,
2013-08-22 14:09:00,97.7,57.0,30.06,SSW,209,0.0,0.0,26,0.00,,---,0.00,VWS V14.01,2013-08-22 19:09:00,
2013-08-22 14:14:00,97.5,56.9,30.06,SSW,209,0.0,0.0,26,0.00,,---,0.00,VWS V14.01,2013-08-22 19:14:00,
2013-08-22 14:19:00,98.1,57.4,30.09,SW,219,3.1,6.3,26,0.00,,---,0.00,VWS V14.01,2013-08-22 19:19:00,
2013-08-22 14:24:00,97.5,55.8,30.09,SSE,162,0.0,2.2,25,0.00,,---,0.00,VWS V14.01,2013-08-22 19:24:00,
2013-08-22 14:29:00,98.1,55.1,30.09,ENE,65,0.0,0.0,24,0.00,,---,0.00,VWS V14.01,2013-08-22 19:29:00,
2013-08-22 14:34:00,98.1,54.0,30.09,SSW,199,0.0,2.2,23,0.00,,---,0.00,VWS V14.01,2013-08-22 19:34:00,
2013-08-22 14:39:00,96.6,53.9,30.06,South,183,0.0,0.0,24,0.00,,---,0.00,VWS V14.01,2013-08-22 19:39:00,
2013-08-22 14:44:00,96.6,56.1,30.06,SSE,149,0.0,0.0,26,0.00,,---,0.00,VWS V14.01,2013-08-22 19:44:00,
2013-08-22 14:49:00,95.9,52.2,30.06,SSE,166,2.7,4.0,23,0.00,,---,0.00,VWS V14.01,2013-08-22 19:49:00,
2013-08-22 14:54:00,94.8,53.5,30.06,West,265,0.0,0.0,25,0.00,,---,0.00,VWS V14.01,2013-08-22 19:54:00,
2013-08-22 14:59:00,93.7,54.7,30.06,SSW,211,0.0,2.7,27,0.00,,---,0.00,VWS V14.01,2013-08-22 19:59:00,
2013-08-22 15:04:00,92.8,54.0,30.06,SSW,211,0.0,0.0,27,0.00,,---,0.00,VWS V14.01,2013-08-22 20:04:00,
2013-08-22 15:09:00,92.5,53.7,30.06,SSW,211,0.0,0.0,27,0.00,,---,0.00,VWS V14.01,2013-08-22 20:09:00,
2013-08-22 15:14:00,92.3,54.5,30.06,SSW,211,0.0,0.0,28,0.00,,---,0.00,VWS V14.01,2013-08-22 20:14:00,
2013-08-22 15:19:00,92.3,54.5,30.06,SSW,196,0.0,0.0,28,0.00,,---,0.00,VWS V14.01,2013-08-22 20:19:00,
2013-08-22 15:24:00,92.3,55.5,30.06,SSW,213,0.0,0.0,29,0.00,,---,0.00,VWS V14.01,2013-08-22 20:24:00,
2013-08-22 15:29:00,91.9,56.1,30.06,SSW,213,0.0,0.0,30,0.00,,---,0.00,VWS V14.01,2013-08-22 20:29:00,
2013-08-22 15:34:00,91.8,56.0,30.03,SSW,213,0.0,0.0,30,0.00,,---,0.00,VWS V14.01,2013-08-22 20:34:00,
2013-08-22 15:39:00,91.8,55.0,30.03,SSW,213,0.0,0.0,29,0.00,,---,0.00,VWS V14.01,2013-08-22 20:39:00,
2013-08-22 15:44:00,91.9,55.2,30.03,SSW,213,0.0,0.0,29,0.00,,---,0.00,VWS V14.01,2013-08-22 20:44:00,
2013-08-22 15:49:00,92.7,55.8,30.03,SSW,213,0.0,0.0,29,0.00,,---,0.00,VWS V14.01,2013-08-22 20:49:00,
2013-08-22 15:54:00,93.0,56.1,30.03,SSW,213,0.0,0.0,29,0.00,,---,0.00,VWS V14.01,2013-08-22 20:54:00,
2013-08-22 15:59:00,93.4,55.4,30.03,NW,310,0.0,0.0,28,0.00,,---,0.00,VWS V14.01,2013-08-22 20:59:00,
2013-08-22 16:04:00,93.6,55.6,30.03,North,10,0.0,0.0,28,0.00,,---,0.00,VWS V14.01,2013-08-22 21:04:00,
2013-08-22 16:09:00,93.7,55.7,30.03,North,10,0.0,0.0,28,0.00,,---,0.00,VWS V14.01,2013-08-22 21:09:00,
2013-08-22 16:14:00,93.7,55.7,30.03,South,183,0.0,0.0,28,0.00,,---,0.00,VWS V14.01,2013-08-22 21:14:00,
2013-08-22 16:19:00,94.3,56.2,30.03,ESE,112,0.0,0.0,28,0.00,,---,0.00,VWS V14.01,2013-08-22 21:19:00,
2013-08-22 16:24:00,94.8,56.7,30.03,West,272,0.0,0.0,28,0.00,,---,0.00,VWS V14.01,2013-08-22 21:24:00,
2013-08-22 16:29:00,95.2,56.0,30.03,West,277,0.0,0.0,27,0.00,,---,0.00,VWS V14.01,2013-08-22 21:29:00,
2013-08-22 16:34:00,95.9,56.6,30.03,SW,229,0.0,0.0,27,0.00,,---,0.00,VWS V14.01,2013-08-22 21:34:00,
2013-08-22 16:39:00,96.4,56.0,30.03,North,0,0.0,0.0,26,0.00,,---,0.00,VWS V14.01,2013-08-22 21:39:00,
2013-08-22 16:44:00,96.8,56.3,30.03,NNE,19,0.0,0.0,26,0.00,,---,0.00,VWS V14.01,2013-08-22 21:44:00,
2013-08-22 16:49:00,96.6,56.1,30.03,SE,145,0.0,0.0,26,0.00,,---,0.00,VWS V14.01,2013-08-22 21:49:00,
2013-08-22 16:54:00,95.9,55.5,30.03,NNW,329,0.0,0.0,26,0.00,,---,0.00,VWS V14.01,2013-08-22 21:54:00,
2013-08-22 16:59:00,95.0,54.8,30.03,SSW,196,0.0,0.0,26,0.00,,---,0.00,VWS V14.01,2013-08-22 21:59:00,
2013-08-22 17:04:00,94.6,55.5,30.03,South,174,0.0,0.0,27,0.00,,---,0.00,VWS V14.01,2013-08-22 22:04:00,
2013-08-22 17:09:00,95.0,54.8,30.03,South,174,0.0,0.0,26,0.00,,---,0.00,VWS V14.01,2013-08-22 22:09:00,
2013-08-22 17:14:00,95.2,54.9,30.03,South,174,0.0,0.0,26,0.00,,---,0.00,VWS V14.01,2013-08-22 22:14:00,
2013-08-22 17:19:00,95.5,55.2,30.03,South,191,0.0,0.0,26,0.00,,---,0.00,VWS V14.01,2013-08-22 22:19:00,
2013-08-22 17:24:00,95.4,55.1,30.03,WNW,292,0.0,0.0,26,0.00,,---,0.00,VWS V14.01,2013-08-22 22:24:00,
2013-08-22 17:29:00,94.8,55.7,30.03,South,178,3.1,3.1,27,0.00,,---,0.00,VWS V14.01,2013-08-22 22:29:00,
2013-08-22 17:34:00,93.7,54.7,30.03,SW,219,0.0,0.0,27,0.00,,---,0.00,VWS V14.01,2013-08-22 22:34:00,
2013-08-22 17:39:00,93.2,54.3,30.03,SW,214,0.0,0.0,27,0.00,,---,0.00,VWS V14.01,2013-08-22 22:39:00,
2013-08-22 17:44:00,92.7,54.8,30.03,SW,231,0.0,0.0,28,0.00,,---,0.00,VWS V14.01,2013-08-22 22:44:00,
2013-08-22 17:49:00,92.3,55.5,30.03,West,272,0.0,0.0,29,0.00,,---,0.00,VWS V14.01,2013-08-22 22:49:00,
2013-08-22 17:50:00,92.1,55.3,30.03,West,272,0.0,0.0,29,0.00,,---,0.00,VWS V14.01,2013-08-22 22:50:00,
2013-08-22 17:51:00,92.1,55.3,30.03,West,272,0.0,0.0,29,0.00,,---,0.00,VWS V14.01,2013-08-22 22:51:00,
2013-08-22 17:52:00,91.9,54.2,30.03,SSW,196,0.0,0.0,28,0.00,,---,0.00,VWS V14.01,2013-08-22 22:52:00,
2013-08-22 17:53:00,91.9,55.2,30.03,SSW,196,0.0,0.0,29,0.00,,---,0.00,VWS V14.01,2013-08-22 22:53:00,
2013-08-22 17:54:00,91.8,55.0,30.03,SSW,195,0.0,0.0,29,0.00,,---,0.00,VWS V14.01,2013-08-22 22:54:00,
2013-08-22 17:55:00,91.8,55.0,30.03,SSW,195,0.0,0.0,29,0.00,,---,0.00,VWS V14.01,2013-08-22 22:55:00,
2013-08-22 17:56:00,91.6,54.9,30.03,SSE,168,3.1,5.4,29,0.00,,---,0.00,VWS V14.01,2013-08-22 22:56:00,
2013-08-22 17:57:00,91.4,54.7,30.03,WSW,249,7.6,7.6,29,0.00,,---,0.00,VWS V14.01,2013-08-22 22:57:00,
2013-08-22 17:58:00,91.0,55.3,30.03,SSW,201,4.0,7.6,30,0.00,,---,0.00,VWS V14.01,2013-08-22 22:58:00,
2013-08-22 17:59:00,90.7,56.8,30.03,SSW,208,5.4,7.6,32,0.00,,---,0.00,VWS V14.01,2013-08-22 22:59:00,
2013-08-22 18:00:00,90.7,56.8,30.03,SW,226,3.1,7.6,32,0.00,,---,0.00,VWS V14.01,2013-08-22 23:00:00,
2013-08-22 18:01:00,90.5,56.6,30.03,South,184,3.6,4.0,32,0.00,,---,0.00,VWS V14.01,2013-08-22 23:01:00,
2013-08-22 18:02:00,90.3,57.3,30.03,South,177,5.8,6.3,33,0.00,,---,0.00,VWS V14.01,2013-08-22 23:02:00,
2013-08-22 18:03:00,90.0,58.7,30.03,South,191,8.7,10.5,35,0.00,,---,0.00,VWS V14.01,2013-08-22 23:03:00,
2013-08-22 18:04:00,89.8,59.3,30.03,SSW,210,3.6,5.4,36,0.00,,---,0.00,VWS V14.01,2013-08-22 23:04:00,
2013-08-22 18:05:00,89.8,59.3,30.03,South,178,2.7,5.8,36,0.00,,---,0.00,VWS V14.01,2013-08-22 23:05:00,
2013-08-22 18:06:00,89.8,60.1,30.03,South,191,5.8,5.8,37,0.00,,---,0.00,VWS V14.01,2013-08-22 23:06:00,
2013-08-22 18:07:00,89.4,60.5,30.03,South,177,3.1,8.1,38,0.00,,---,0.00,VWS V14.01,2013-08-22 23:07:00,
2013-08-22 18:08:00,89.2,60.3,30.03,SW,236,4.0,4.0,38,0.00,,---,0.00,VWS V14.01,2013-08-22 23:08:00,
2013-08-22 18:09:00,89.1,60.2,30.03,SE,138,6.3,6.3,38,0.00,,---,0.00,VWS V14.01,2013-08-22 23:09:00,
2013-08-22 18:10:00,88.9,60.0,30.03,South,183,8.7,8.7,38,0.00,,---,0.00,VWS V14.01,2013-08-22 23:10:00,
2013-08-22 18:11:00,88.7,59.8,30.03,SW,219,3.1,8.7,38,0.00,,---,0.00,VWS V14.01,2013-08-22 23:11:00,
2013-08-22 18:12:00,88.5,59.7,30.03,SSE,156,2.7,4.0,38,0.00,,---,0.00,VWS V14.01,2013-08-22 23:12:00,
2013-08-22 18:13:00,88.3,59.5,30.03,SSE,162,5.8,7.6,38,0.00,,---,0.00,VWS V14.01,2013-08-22 23:13:00,
2013-08-22 18:14:00,88.2,60.1,30.03,SSW,206,3.1,7.2,39,0.00,,---,0.00,VWS V14.01,2013-08-22 23:14:00,
2013-08-22 18:15:00,88.0,60.0,30.03,South,173,6.3,7.2,39,0.00,,---,0.00,VWS V14.01,2013-08-22 23:15:00,
2013-08-22 18:16:00,88.0,60.0,30.03,SW,223,3.6,6.3,39,0.00,,---,0.00,VWS V14.01,2013-08-22 23:16:00,
2013-08-22 18:17:00,87.8,59.8,30.03,SSE,156,2.7,3.6,39,0.00,,---,0.00,VWS V14.01,2013-08-22 23:17:00,
2013-08-22 18:18:00,87.8,59.8,30.03,South,181,3.6,6.3,39,0.00,,---,0.00,VWS V14.01,2013-08-22 23:18:00,
2013-08-22 18:19:00,87.6,59.6,30.03,SSE,159,6.3,6.3,39,0.00,,---,0.00,VWS V14.01,2013-08-22 23:19:00,
2013-08-22 18:20:00,87.6,59.6,30.03,SSE,160,3.1,6.3,39,0.00,,---,0.00,VWS V14.01,2013-08-22 23:20:00,
2013-08-22 18:21:00,87.6,60.3,30.03,South,178,4.9,4.9,40,0.00,,---,0.00,VWS V14.01,2013-08-22 23:21:00,
2013-08-22 18:22:00,87.6,60.3,30.03,South,181,4.9,5.8,40,0.00,,---,0.00,VWS V14.01,2013-08-22 23:22:00,
2013-08-22 18:23:00,87.6,60.3,30.03,SSE,155,3.6,5.8,40,0.00,,---,0.00,VWS V14.01,2013-08-22 23:23:00,
2013-08-22 18:24:00,87.6,60.3,30.03,WSW,239,3.1,4.0,40,0.00,,---,0.00,VWS V14.01,2013-08-22 23:24:00,
2013-08-22 18:25:00,87.6,60.3,30.03,SW,215,3.6,4.0,40,0.00,,---,0.00,VWS V14.01,2013-08-22 23:25:00,
2013-08-22 18:26:00,87.4,60.2,30.03,South,178,5.8,5.8,40,0.00,,---,0.00,VWS V14.01,2013-08-22 23:26:00,
2013-08-22 18:27:00,87.4,60.2,30.03,SW,225,3.6,5.8,40,0.00,,---,0.00,VWS V14.01,2013-08-22 23:27:00,
2013-08-22 18:28:00,87.3,60.7,30.03,SSW,200,2.7,4.0,41,0.00,,---,0.00,VWS V14.01,2013-08-22 23:28:00,
2013-08-22 18:29:00,87.3,60.7,30.03,South,175,3.1,3.1,41,0.00,,---,0.00,VWS V14.01,2013-08-22 23:29:00,
2013-08-22 18:30:00,87.3,60.7,30.03,SSW,206,2.7,4.9,41,0.00,,---,0.00,VWS V14.01,2013-08-22 23:30:00,
2013-08-22 18:31:00,87.1,60.5,30.03,WSW,239,0.0,3.6,41,0.00,,---,0.00,VWS V14.01,2013-08-22 23:31:00,
2013-08-22 18:32:00,87.1,60.5,30.03,SSE,165,4.0,4.0,41,0.00,,---,0.00,VWS V14.01,2013-08-22 23:32:00,
2013-08-22 18:33:00,87.1,61.2,30.03,South,177,2.7,4.0,42,0.00,,---,0.00,VWS V14.01,2013-08-22 23:33:00,
2013-08-22 18:34:00,87.3,61.4,30.03,SW,227,4.9,4.9,42,0.00,,---,0.00,VWS V14.01,2013-08-22 23:34:00,
2013-08-22 18:35:00,87.1,61.2,30.03,SW,226,3.6,4.9,42,0.00,,---,0.00,VWS V14.01,2013-08-22 23:35:00,
2013-08-22 18:36:00,87.1,61.2,30.03,South,180,2.7,3.6,42,0.00,,---,0.00,VWS V14.01,2013-08-22 23:36:00,
2013-08-22 18:37:00,87.1,61.2,30.03,SSW,197,2.7,5.8,42,0.00,,---,0.00,VWS V14.01,2013-08-22 23:37:00,
2013-08-22 18:38:00,87.1,61.9,30.03,South,173,3.1,3.6,43,0.00,,---,0.00,VWS V14.01,2013-08-22 23:38:00,
2013-08-22 18:39:00,87.1,61.9,30.03,South,191,2.7,3.6,43,0.00,,---,0.00,VWS V14.01,2013-08-22 23:39:00,
2013-08-22 18:40:00,87.1,61.9,30.03,South,169,2.7,3.6,43,0.00,,---,0.00,VWS V14.01,2013-08-22 23:40:00,
2013-08-22 18:41:00,87.1,61.9,30.03,South,179,4.9,4.9,43,0.00,,---,0.00,VWS V14.01,2013-08-22 23:41:00,
2013-08-22 18:42:00,87.1,62.5,30.03,SSW,202,4.0,4.9,44,0.00,,---,0.00,VWS V14.01,2013-08-22 23:42:00,
2013-08-22 18:43:00,86.9,62.4,30.03,SSE,168,3.6,4.0,44,0.00,,---,0.00,VWS V14.01,2013-08-22 23:43:00,
2013-08-22 18:44:00,86.9,62.4,30.03,SW,217,0.0,0.0,44,0.00,,---,0.00,VWS V14.01,2013-08-22 23:44:00,
2013-08-22 18:45:00,86.9,62.4,30.03,SSE,157,5.4,5.4,44,0.00,,---,0.00,VWS V14.01,2013-08-22 23:45:00,
2013-08-22 18:46:00,87.1,62.5,30.03,SSW,198,0.0,5.4,44,0.00,,---,0.00,VWS V14.01,2013-08-22 23:46:00,
2013-08-22 18:47:00,86.9,62.4,30.03,SW,225,2.2,3.6,44,0.00,,---,0.00,VWS V14.01,2013-08-22 23:47:00,
2013-08-22 18:48:00,86.7,62.2,30.03,SW,221,3.1,3.1,44,0.00,,---,0.00,VWS V14.01,2013-08-22 23:48:00,
2013-08-22 18:49:00,86.7,62.9,30.03,SSW,206,3.6,3.6,45,0.00,,---,0.00,VWS V14.01,2013-08-22 23:49:00,
2013-08-22 18:50:00,86.7,62.9,30.03,SW,231,2.2,3.6,45,0.00,,---,0.00,VWS V14.01,2013-08-22 23:50:00,
2013-08-22 18:51:00,86.7,62.9,30.03,South,181,2.2,3.6,45,0.00,,---,0.00,VWS V14.01,2013-08-22 23:51:00,
2013-08-22 18:52:00,86.5,62.7,30.03,SSE,155,2.2,3.1,45,0.00,,---,0.00,VWS V14.01,2013-08-22 23:52:00,
2013-08-22 18:53:00,86.5,62.7,30.03,SSE,156,3.1,3.1,45,0.00,,---,0.00,VWS V14.01,2013-08-22 23:53:00,
2013-08-22 18:54:00,86.5,62.7,30.03,SSE,168,3.6,3.6,45,0.00,,---,0.00,VWS V14.01,2013-08-22 23:54:00,
2013-08-22 18:55:00,86.7,62.9,30.03,SSE,162,2.2,3.6,45,0.00,,---,0.00,VWS V14.01,2013-08-22 23:55:00,
2013-08-22 18:56:00,86.7,63.5,30.03,South,173,3.1,4.0,46,0.00,,---,0.00,VWS V14.01,2013-08-22 23:56:00,
2013-08-22 18:57:00,86.9,63.0,30.03,SSW,205,2.2,3.6,45,0.00,,---,0.00,VWS V14.01,2013-08-22 23:57:00,
2013-08-22 18:58:00,86.9,63.0,30.03,South,181,3.1,3.1,45,0.00,,---,0.00,VWS V14.01,2013-08-22 23:58:00,
2013-08-22 18:59:00,86.7,62.9,30.03,SSE,164,3.1,3.6,45,0.00,,---,0.00,VWS V14.01,2013-08-22 23:59:00,
2013-08-22 19:00:00,86.7,62.9,30.03,SW,222,3.1,3.6,45,0.00,,---,0.00,VWS V14.01,2013-08-23 00:00:00,
2013-08-22 19:02:00,86.4,63.2,30.03,SSW,213,2.7,4.9,46,0.00,,---,0.00,VWS V14.01,2013-08-23 00:02:00,
2013-08-22 19:03:00,86.4,63.2,30.03,SSW,211,3.1,3.1,46,0.00,,---,0.00,VWS V14.01,2013-08-23 00:03:00,
2013-08-22 19:04:00,86.2,63.0,30.03,SSW,212,4.0,4.0,46,0.00,,---,0.00,VWS V14.01,2013-08-23 00:04:00,
2013-08-22 19:05:00,86.2,63.0,30.03,SSW,207,2.7,4.0,46,0.00,,---,0.00,VWS V14.01,2013-08-23 00:05:00,
2013-08-22 19:06:00,86.4,63.2,30.03,WSW,239,0.0,4.0,46,0.00,,---,0.00,VWS V14.01,2013-08-23 00:06:00,
2013-08-22 19:07:00,86.4,63.2,30.03,WSW,239,0.0,0.0,46,0.00,,---,0.00,VWS V14.01,2013-08-23 00:07:00,
2013-08-22 19:08:00,86.2,63.0,30.03,WSW,239,0.0,0.0,46,0.00,,---,0.00,VWS V14.01,2013-08-23 00:08:00,
2013-08-22 19:09:00,86.2,63.0,30.03,South,174,0.0,0.0,46,0.00,,---,0.00,VWS V14.01,2013-08-23 00:09:00,
2013-08-22 19:10:00,86.2,63.0,30.03,WSW,243,0.0,0.0,46,0.00,,---,0.00,VWS V14.01,2013-08-23 00:10:00,
2013-08-22 19:11:00,86.2,63.0,30.03,SW,235,0.0,0.0,46,0.00,,---,0.00,VWS V14.01,2013-08-23 00:11:00,
2013-08-22 19:12:00,86.2,63.0,30.03,SW,232,0.0,2.7,46,0.00,,---,0.00,VWS V14.01,2013-08-23 00:12:00,
2013-08-22 19:13:00,86.2,63.0,30.03,South,172,3.1,3.1,46,0.00,,---,0.00,VWS V14.01,2013-08-23 00:13:00,
2013-08-22 19:14:00,86.0,62.8,30.03,South,170,2.7,2.7,46,0.00,,---,0.00,VWS V14.01,2013-08-23 00:14:00,
2013-08-22 19:15:00,86.0,62.8,30.03,South,189,3.1,3.1,46,0.00,,---,0.00,VWS V14.01,2013-08-23 00:15:00,
2013-08-22 19:16:00,86.2,63.0,30.03,SW,229,3.6,4.0,46,0.00,,---,0.00,VWS V14.01,2013-08-23 00:16:00,
2013-08-22 19:17:00,86.2,63.0,30.03,SSE,160,2.2,3.6,46,0.00,,---,0.00,VWS V14.01,2013-08-23 00:17:00,
2013-08-22 19:18:00,86.2,63.0,30.03,South,171,3.1,3.1,46,0.00,,---,0.00,VWS V14.01,2013-08-23 00:18:00,
2013-08-22 19:19:00,86.0,62.8,30.03,SW,224,4.0,4.0,46,0.00,,---,0.00,VWS V14.01,2013-08-23 00:19:00,
2013-08-22 19:20:00,86.0,62.8,30.03,SW,231,0.0,4.0,46,0.00,,---,0.00,VWS V14.01,2013-08-23 00:20:00,
2013-08-22 19:21:00,85.8,63.3,30.03,SW,224,0.0,2.7,47,0.00,,---,0.00,VWS V14.01,2013-08-23 00:21:00,
2013-08-22 19:22:00,85.8,63.3,30.03,SW,224,0.0,0.0,47,0.00,,---,0.00,VWS V14.01,2013-08-23 00:22:00,
2013-08-22 19:23:00,85.8,63.3,30.03,SW,224,0.0,0.0,47,0.00,,---,0.00,VWS V14.01,2013-08-23 00:23:00,
2013-08-22 19:24:00,85.6,63.1,30.03,SW,224,0.0,0.0,47,0.00,,---,0.00,VWS V14.01,2013-08-23 00:24:00,
2013-08-22 19:25:00,85.6,63.1,30.03,SW,224,0.0,0.0,47,0.00,,---,0.00,VWS V14.01,2013-08-23 00:25:00,
2013-08-22 19:26:00,85.6,63.1,30.03,SW,224,0.0,0.0,47,0.00,,---,0.00,VWS V14.01,2013-08-23 00:26:00,
2013-08-22 19:27:00,85.6,63.1,30.03,SW,221,0.0,0.0,47,0.00,,---,0.00,VWS V14.01,2013-08-23 00:27:00,
2013-08-22 19:28:00,85.8,63.3,30.03,SW,221,0.0,0.0,47,0.00,,---,0.00,VWS V14.01,2013-08-23 00:28:00,
2013-08-22 19:29:00,85.6,63.1,30.03,SW,221,0.0,0.0,47,0.00,,---,0.00,VWS V14.01,2013-08-23 00:29:00,
2013-08-22 19:30:00,85.6,63.1,30.03,SW,221,0.0,0.0,47,0.00,,---,0.00,VWS V14.01,2013-08-23 00:30:00,
2013-08-22 19:31:00,85.6,63.1,30.03,SW,221,0.0,0.0,47,0.00,,---,0.00,VWS V14.01,2013-08-23 00:31:00,
2013-08-22 19:32:00,85.8,63.3,30.03,SW,221,0.0,0.0,47,0.00,,---,0.00,VWS V14.01,2013-08-23 00:32:00,
2013-08-22 19:33:00,85.8,63.3,30.03,SW,221,0.0,0.0,47,0.00,,---,0.00,VWS V14.01,2013-08-23 00:33:00,
2013-08-22 19:34:00,85.6,63.1,30.03,SW,221,0.0,0.0,47,0.00,,---,0.00,VWS V14.01,2013-08-23 00:34:00,
2013-08-22 19:35:00,85.6,63.1,30.03,SW,221,0.0,0.0,47,0.00,,---,0.00,VWS V14.01,2013-08-23 00:35:00,
2013-08-22 19:36:00,85.5,63.0,30.03,SW,221,0.0,0.0,47,0.00,,---,0.00,VWS V14.01,2013-08-23 00:36:00,
2013-08-22 19:37:00,85.5,63.0,30.03,SW,221,0.0,0.0,47,0.00,,---,0.00,VWS V14.01,2013-08-23 00:37:00,
2013-08-22 19:38:00,85.5,63.5,30.03,SW,221,0.0,0.0,48,0.00,,---,0.00,VWS V14.01,2013-08-23 00:38:00,
2013-08-22 19:39:00,85.3,63.4,30.03,SW,221,0.0,0.0,48,0.00,,---,0.00,VWS V14.01,2013-08-23 00:39:00,
2013-08-22 19:40:00,85.3,63.4,30.03,SW,221,0.0,0.0,48,0.00,,---,0.00,VWS V14.01,2013-08-23 00:40:00,
2013-08-22 19:41:00,85.1,63.2,30.03,SW,221,0.0,0.0,48,0.00,,---,0.00,VWS V14.01,2013-08-23 00:41:00,
2013-08-22 19:42:00,85.1,63.2,30.03,SW,221,0.0,0.0,48,0.00,,---,0.00,VWS V14.01,2013-08-23 00:42:00,
2013-08-22 19:43:00,85.1,63.8,30.03,SW,221,0.0,0.0,49,0.00,,---,0.00,VWS V14.01,2013-08-23 00:43:00,
2013-08-22 19:44:00,84.9,63.7,30.03,SW,221,0.0,0.0,49,0.00,,---,0.00,VWS V14.01,2013-08-23 00:44:00,
2013-08-22 19:45:00,84.9,63.7,30.03,SW,221,0.0,0.0,49,0.00,,---,0.00,VWS V14.01,2013-08-23 00:45:00,
2013-08-22 19:46:00,84.9,63.7,30.03,SW,221,0.0,0.0,49,0.00,,---,0.00,VWS V14.01,2013-08-23 00:46:00,
2013-08-22 19:47:00,84.7,63.5,30.03,SW,221,0.0,0.0,49,0.00,,---,0.00,VWS V14.01,2013-08-23 00:47:00,
2013-08-22 19:48:00,84.7,63.5,30.03,SW,221,0.0,0.0,49,0.00,,---,0.00,VWS V14.01,2013-08-23 00:48:00,
2013-08-22 19:49:00,84.7,64.1,30.03,SW,221,0.0,0.0,50,0.00,,---,0.00,VWS V14.01,2013-08-23 00:49:00,
2013-08-22 19:50:00,84.6,63.9,30.03,SW,221,0.0,0.0,50,0.00,,---,0.00,VWS V14.01,2013-08-23 00:50:00,
2013-08-22 19:51:00,84.4,63.7,30.03,SW,221,0.0,0.0,50,0.00,,---,0.00,VWS V14.01,2013-08-23 00:51:00,
2013-08-22 19:52:00,84.4,63.7,30.03,SW,221,0.0,0.0,50,0.00,,---,0.00,VWS V14.01,2013-08-23 00:52:00,
2013-08-22 19:53:00,84.4,63.7,30.03,SW,231,0.0,0.0,50,0.00,,---,0.00,VWS V14.01,2013-08-23 00:53:00,
2013-08-22 19:54:00,84.4,63.7,30.03,SW,231,0.0,0.0,50,0.00,,---,0.00,VWS V14.01,2013-08-23 00:54:00,
2013-08-22 19:55:00,84.2,63.6,30.03,SW,231,0.0,0.0,50,0.00,,---,0.00,VWS V14.01,2013-08-23 00:55:00,
2013-08-22 19:56:00,84.2,63.6,30.03,SW,231,0.0,0.0,50,0.00,,---,0.00,VWS V14.01,2013-08-23 00:56:00,
2013-08-22 19:57:00,84.2,64.1,30.03,SW,231,0.0,0.0,51,0.00,,---,0.00,VWS V14.01,2013-08-23 00:57:00,
2013-08-22 19:58:00,84.2,64.1,30.03,SW,231,0.0,0.0,51,0.00,,---,0.00,VWS V14.01,2013-08-23 00:58:00,
2013-08-22 19:59:00,84.4,64.3,30.03,SW,231,0.0,0.0,51,0.00,,---,0.00,VWS V14.01,2013-08-23 00:59:00,
2013-08-22 20:00:00,84.6,64.5,30.03,SW,231,0.0,0.0,51,0.00,,---,0.00,VWS V14.01,2013-08-23 01:00:00,
2013-08-22 20:01:00,84.4,64.3,30.03,SW,231,0.0,0.0,51,0.00,,---,0.00,VWS V14.01,2013-08-23 01:01:00,
2013-08-22 20:02:00,84.4,63.7,30.03,SW,231,0.0,0.0,50,0.00,,---,0.00,VWS V14.01,2013-08-23 01:02:00,
2013-08-22 20:03:00,84.2,63.6,30.03,SW,231,0.0,0.0,50,0.00,,---,0.00,VWS V14.01,2013-08-23 01:03:00,
2013-08-22 20:04:00,84.2,64.1,30.03,SW,231,0.0,0.0,51,0.00,,---,0.00,VWS V14.01,2013-08-23 01:04:00,
2013-08-22 20:05:00,84.2,63.6,30.03,SW,231,0.0,0.0,50,0.00,,---,0.00,VWS V14.01,2013-08-23 01:05:00,
2013-08-22 20:06:00,84.2,63.6,30.03,SW,231,0.0,0.0,50,0.00,,---,0.00,VWS V14.01,2013-08-23 01:06:00,
2013-08-22 20:07:00,84.2,63.6,30.03,SW,231,0.0,0.0,50,0.00,,---,0.00,VWS V14.01,2013-08-23 01:07:00,
2013-08-22 20:08:00,84.0,64.0,30.03,SW,231,0.0,0.0,51,0.00,,---,0.00,VWS V14.01,2013-08-23 01:08:00,
2013-08-22 20:09:00,84.0,64.0,30.03,SW,231,0.0,0.0,51,0.00,,---,0.00,VWS V14.01,2013-08-23 01:09:00,
2013-08-22 20:10:00,84.0,64.0,30.03,SW,231,0.0,0.0,51,0.00,,---,0.00,VWS V14.01,2013-08-23 01:10:00,
2013-08-22 20:11:00,84.0,64.0,30.03,SW,231,0.0,0.0,51,0.00,,---,0.00,VWS V14.01,2013-08-23 01:11:00,
2013-08-22 20:12:00,83.8,63.8,30.03,SW,231,0.0,0.0,51,0.00,,---,0.00,VWS V14.01,2013-08-23 01:12:00,
2013-08-22 20:13:00,83.8,63.8,30.03,SW,231,0.0,0.0,51,0.00,,---,0.00,VWS V14.01,2013-08-23 01:13:00,
2013-08-22 20:14:00,83.8,63.8,30.03,SW,231,0.0,0.0,51,0.00,,---,0.00,VWS V14.01,2013-08-23 01:14:00,
2013-08-22 20:15:00,83.8,63.8,30.03,SW,231,0.0,0.0,51,0.00,,---,0.00,VWS V14.01,2013-08-23 01:15:00,
2013-08-22 20:16:00,83.8,63.8,30.03,SW,231,0.0,0.0,51,0.00,,---,0.00,VWS V14.01,2013-08-23 01:16:00,
2013-08-22 20:17:00,83.7,63.6,30.03,SW,231,0.0,0.0,51,0.00,,---,0.00,VWS V14.01,2013-08-23 01:17:00,
2013-08-22 20:18:00,83.7,63.6,30.03,SW,231,0.0,0.0,51,0.00,,---,0.00,VWS V14.01,2013-08-23 01:18:00,
2013-08-22 20:19:00,83.7,63.6,30.03,SW,231,0.0,0.0,51,0.00,,---,0.00,VWS V14.01,2013-08-23 01:19:00,
2013-08-22 20:20:00,83.7,63.6,30.03,SW,231,0.0,0.0,51,0.00,,---,0.00,VWS V14.01,2013-08-23 01:20:00,
2013-08-22 20:21:00,83.7,63.6,30.03,SW,231,0.0,0.0,51,0.00,,---,0.00,VWS V14.01,2013-08-23 01:21:00,
2013-08-22 20:22:00,83.7,63.6,30.03,SW,231,0.0,0.0,51,0.00,,---,0.00,VWS V14.01,2013-08-23 01:22:00,
2013-08-22 20:23:00,83.5,64.0,30.03,SW,231,0.0,0.0,52,0.00,,---,0.00,VWS V14.01,2013-08-23 01:23:00,
2013-08-22 20:24:00,83.5,64.0,30.03,SW,231,0.0,0.0,52,0.00,,---,0.00,VWS V14.01,2013-08-23 01:24:00,
2013-08-22 20:25:00,83.5,64.0,30.03,SW,231,0.0,0.0,52,0.00,,---,0.00,VWS V14.01,2013-08-23 01:25:00,
2013-08-22 20:26:00,83.5,64.6,30.03,SW,231,0.0,0.0,53,0.00,,---,0.00,VWS V14.01,2013-08-23 01:26:00,
2013-08-22 20:27:00,83.5,64.6,30.03,SW,231,0.0,0.0,53,0.00,,---,0.00,VWS V14.01,2013-08-23 01:27:00,
2013-08-22 20:28:00,83.3,63.8,30.03,SW,231,0.0,0.0,52,0.00,,---,0.00,VWS V14.01,2013-08-23 01:28:00,
2013-08-22 20:29:00,83.3,63.9,30.03,SW,231,0.0,0.0,52,0.00,,---,0.00,VWS V14.01,2013-08-23 01:29:00,
2013-08-22 20:30:00,83.3,63.8,30.03,SW,231,0.0,0.0,52,0.00,,---,0.00,VWS V14.01,2013-08-23 01:30:00,
2013-08-22 20:31:00,83.1,63.7,30.03,SW,231,0.0,0.0,52,0.00,,---,0.00,VWS V14.01,2013-08-23 01:31:00,
2013-08-22 20:32:00,83.1,63.7,30.03,SW,231,0.0,0.0,52,0.00,,---,0.00,VWS V14.01,2013-08-23 01:32:00,
2013-08-22 20:33:00,83.1,63.7,30.03,SW,231,0.0,0.0,52,0.00,,---,0.00,VWS V14.01,2013-08-23 01:33:00,
2013-08-22 20:34:00,83.1,63.7,30.03,SW,231,0.0,0.0,52,0.00,,---,0.00,VWS V14.01,2013-08-23 01:34:00,
2013-08-22 20:35:00,83.1,63.7,30.03,SW,231,0.0,0.0,52,0.00,,---,0.00,VWS V14.01,2013-08-23 01:35:00,
2013-08-22 20:36:00,82.9,63.5,30.03,SW,231,0.0,0.0,52,0.00,,---,0.00,VWS V14.01,2013-08-23 01:36:00,
2013-08-22 20:37:00,82.9,63.5,30.03,SW,231,0.0,0.0,52,0.00,,---,0.00,VWS V14.01,2013-08-23 01:37:00,
2013-08-22 20:38:00,82.9,63.5,30.03,SW,231,0.0,0.0,52,0.00,,---,0.00,VWS V14.01,2013-08-23 01:38:00,
2013-08-22 20:39:00,82.9,63.5,30.03,SW,231,0.0,0.0,52,0.00,,---,0.00,VWS V14.01,2013-08-23 01:39:00,
2013-08-22 20:40:00,82.9,63.5,30.03,SW,231,0.0,0.0,52,0.00,,---,0.00,VWS V14.01,2013-08-23 01:40:00,
2013-08-22 20:41:00,82.8,63.4,30.03,SW,231,0.0,0.0,52,0.00,,---,0.00,VWS V14.01,2013-08-23 01:41:00,
2013-08-22 20:42:00,82.8,63.4,30.03,SW,231,0.0,0.0,52,0.00,,---,0.00,VWS V14.01,2013-08-23 01:42:00,
2013-08-22 20:43:00,82.8,63.4,30.03,SW,231,0.0,0.0,52,0.00,,---,0.00,VWS V14.01,2013-08-23 01:43:00,
2013-08-22 20:44:00,82.8,63.9,30.03,SW,231,0.0,0.0,53,0.00,,---,0.00,VWS V14.01,2013-08-23 01:44:00,
2013-08-22 20:45:00,82.8,63.9,30.03,SW,231,0.0,0.0,53,0.00,,---,0.00,VWS V14.01,2013-08-23 01:45:00,
2013-08-22 20:46:00,82.8,63.9,30.03,SW,231,0.0,0.0,53,0.00,,---,0.00,VWS V14.01,2013-08-23 01:46:00,
2013-08-22 20:47:00,82.6,63.7,30.03,SW,231,0.0,0.0,53,0.00,,---,0.00,VWS V14.01,2013-08-23 01:47:00,
2013-08-22 20:48:00,82.6,63.7,30.03,SW,231,0.0,0.0,53,0.00,,---,0.00,VWS V14.01,2013-08-23 01:48:00,
2013-08-22 20:49:00,82.6,63.7,30.03,SW,231,0.0,0.0,53,0.00,,---,0.00,VWS V14.01,2013-08-23 01:49:00,
2013-08-22 20:50:00,82.6,63.7,30.03,SW,231,0.0,0.0,53,0.00,,---,0.00,VWS V14.01,2013-08-23 01:50:00,
2013-08-22 20:51:00,82.4,63.6,30.03,SW,231,0.0,0.0,53,0.00,,---,0.00,VWS V14.01,2013-08-23 01:51:00,
2013-08-22 20:52:00,82.4,64.1,30.03,SW,231,0.0,0.0,54,0.00,,---,0.00,VWS V14.01,2013-08-23 01:52:00,
2013-08-22 20:53:00,82.2,64.5,30.03,SW,231,0.0,0.0,55,0.00,,---,0.00,VWS V14.01,2013-08-23 01:53:00,
2013-08-22 20:54:00,82.0,64.3,30.03,SW,231,0.0,0.0,55,0.00,,---,0.00,VWS V14.01,2013-08-23 01:54:00,
2013-08-22 20:55:00,82.0,64.3,30.03,SW,231,0.0,0.0,55,0.00,,---,0.00,VWS V14.01,2013-08-23 01:55:00,
2013-08-22 20:56:00,82.0,64.8,30.03,SW,231,0.0,0.0,56,0.00,,---,0.00,VWS V14.01,2013-08-23 01:56:00,
2013-08-22 20:57:00,82.0,64.8,30.03,SW,231,0.0,0.0,56,0.00,,---,0.00,VWS V14.01,2013-08-23 01:57:00,
2013-08-22 20:58:00,82.0,64.3,30.03,SW,231,0.0,0.0,55,0.00,,---,0.00,VWS V14.01,2013-08-23 01:58:00,
2013-08-22 20:59:00,81.9,64.1,30.03,SW,231,0.0,0.0,55,0.00,,---,0.00,VWS V14.01,2013-08-23 01:59:00,
2013-08-22 21:00:00,81.9,64.1,30.03,SW,231,0.0,0.0,55,0.00,,---,0.00,VWS V14.01,2013-08-23 02:00:00,
2013-08-22 21:01:00,81.9,64.6,30.03,SW,231,0.0,0.0,56,0.00,,---,0.00,VWS V14.01,2013-08-23 02:01:00,
2013-08-22 21:02:00,81.9,64.6,30.03,SW,231,0.0,0.0,56,0.00,,---,0.00,VWS V14.01,2013-08-23 02:02:00,
2013-08-22 21:03:00,81.9,64.6,30.03,SW,231,0.0,0.0,56,0.00,,---,0.00,VWS V14.01,2013-08-23 02:03:00,
2013-08-22 21:04:00,81.7,64.5,30.03,SW,231,0.0,0.0,56,0.00,,---,0.00,VWS V14.01,2013-08-23 02:04:00,
2013-08-22 21:05:00,81.7,64.5,30.03,SW,231,0.0,0.0,56,0.00,,---,0.00,VWS V14.01,2013-08-23 02:05:00,
2013-08-22 21:06:00,81.7,64.5,30.03,SW,231,0.0,0.0,56,0.00,,---,0.00,VWS V14.01,2013-08-23 02:06:00,
2013-08-22 21:07:00,81.7,64.5,30.03,SW,231,0.0,0.0,56,0.00,,---,0.00,VWS V14.01,2013-08-23 02:07:00,
2013-08-22 21:08:00,81.7,65.0,30.03,SW,231,0.0,0.0,57,0.00,,---,0.00,VWS V14.01,2013-08-23 02:08:00,
2013-08-22 21:09:00,81.5,64.3,30.03,SW,231,0.0,0.0,56,0.00,,---,0.00,VWS V14.01,2013-08-23 02:09:00,
2013-08-22 21:10:00,81.5,64.3,30.03,SW,231,0.0,0.0,56,0.00,,---,0.00,VWS V14.01,2013-08-23 02:10:00,
2013-08-22 21:11:00,81.5,64.3,30.03,SW,231,0.0,0.0,56,0.00,,---,0.00,VWS V14.01,2013-08-23 02:11:00,
2013-08-22 21:12:00,81.5,64.3,30.03,SW,231,0.0,0.0,56,0.00,,---,0.00,VWS V14.01,2013-08-23 02:12:00,
2013-08-22 21:13:00,81.5,64.3,30.03,SW,231,0.0,0.0,56,0.00,,---,0.00,VWS V14.01,2013-08-23 02:13:00,
2013-08-22 21:14:00,81.5,64.3,30.03,SW,231,0.0,0.0,56,0.00,,---,0.00,VWS V14.01,2013-08-23 02:14:00,
2013-08-22 21:15:00,81.5,64.3,30.03,SW,231,0.0,0.0,56,0.00,,---,0.00,VWS V14.01,2013-08-23 02:15:00,
2013-08-22 21:16:00,81.5,64.3,30.03,SW,231,0.0,0.0,56,0.00,,---,0.00,VWS V14.01,2013-08-23 02:16:00,
2013-08-22 21:17:00,81.3,64.7,30.03,SW,231,0.0,0.0,57,0.00,,---,0.00,VWS V14.01,2013-08-23 02:17:00,
2013-08-22 22:31:00,79.7,66.0,30.06,SW,231,0.0,0.0,63,0.00,,---,0.00,VWS V14.01,2013-08-23 03:31:00,
2013-08-22 22:32:00,79.5,65.8,30.06,SW,231,0.0,0.0,63,0.00,,---,0.00,VWS V14.01,2013-08-23 03:32:00,
2013-08-22 22:33:00,79.5,65.8,30.06,SW,231,0.0,0.0,63,0.00,,---,0.00,VWS V14.01,2013-08-23 03:33:00,
2013-08-22 22:34:00,79.5,65.8,30.06,SW,231,0.0,0.0,63,0.00,,---,0.00,VWS V14.01,2013-08-23 03:34:00,
2013-08-22 22:35:00,79.5,65.8,30.06,SW,231,0.0,0.0,63,0.00,,---,0.00,VWS V14.01,2013-08-23 03:35:00,
2013-08-22 22:36:00,79.5,65.8,30.06,SW,231,0.0,0.0,63,0.00,,---,0.00,VWS V14.01,2013-08-23 03:36:00,
2013-08-22 22:37:00,79.5,65.8,30.06,SW,231,0.0,0.0,63,0.00,,---,0.00,VWS V14.01,2013-08-23 03:37:00,
2013-08-22 22:38:00,79.5,65.8,30.06,SW,231,0.0,0.0,63,0.00,,---,0.00,VWS V14.01,2013-08-23 03:38:00,
2013-08-22 22:39:00,79.5,65.8,30.06,SW,231,0.0,0.0,63,0.00,,---,0.00,VWS V14.01,2013-08-23 03:39:00,
2013-08-22 22:40:00,79.5,65.8,30.06,SW,231,0.0,0.0,63,0.00,,---,0.00,VWS V14.01,2013-08-23 03:40:00,
2013-08-22 22:41:00,79.5,65.8,30.06,SW,231,0.0,0.0,63,0.00,,---,0.00,VWS V14.01,2013-08-23 03:41:00,
2013-08-22 22:42:00,79.5,66.3,30.06,SW,231,0.0,0.0,64,0.00,,---,0.00,VWS V14.01,2013-08-23 03:42:00,
2013-08-22 22:43:00,79.3,66.1,30.06,SW,231,0.0,0.0,64,0.00,,---,0.00,VWS V14.01,2013-08-23 03:43:00,
2013-08-22 22:44:00,79.3,66.1,30.06,SW,231,0.0,0.0,64,0.00,,---,0.00,VWS V14.01,2013-08-23 03:44:00,
2013-08-22 22:45:00,79.3,66.1,30.06,SW,231,0.0,0.0,64,0.00,,---,0.00,VWS V14.01,2013-08-23 03:45:00,
2013-08-22 22:46:00,79.2,65.9,30.06,SW,231,0.0,0.0,64,0.00,,---,0.00,VWS V14.01,2013-08-23 03:46:00,
2013-08-22 22:47:00,79.2,65.9,30.06,SW,231,0.0,0.0,64,0.00,,---,0.00,VWS V14.01,2013-08-23 03:47:00,
2013-08-22 22:48:00,79.2,65.9,30.06,SW,231,0.0,0.0,64,0.00,,---,0.00,VWS V14.01,2013-08-23 03:48:00,
2013-08-22 22:49:00,79.2,65.9,30.06,SW,231,0.0,0.0,64,0.00,,---,0.00,VWS V14.01,2013-08-23 03:49:00,
2013-08-22 22:50:00,79.2,65.9,30.09,SW,231,0.0,0.0,64,0.00,,---,0.00,VWS V14.01,2013-08-23 03:50:00,
2013-08-22 22:51:00,79.2,65.9,30.09,SW,231,0.0,0.0,64,0.00,,---,0.00,VWS V14.01,2013-08-23 03:51:00,
2013-08-22 22:52:00,79.2,65.9,30.09,SW,231,0.0,0.0,64,0.00,,---,0.00,VWS V14.01,2013-08-23 03:52:00,
2013-08-22 22:53:00,79.2,65.9,30.09,SW,231,0.0,0.0,64,0.00,,---,0.00,VWS V14.01,2013-08-23 03:53:00,
2013-08-22 22:54:00,79.2,65.9,30.09,SW,231,0.0,0.0,64,0.00,,---,0.00,VWS V14.01,2013-08-23 03:54:00,
2013-08-22 22:55:00,79.2,65.9,30.09,SW,231,0.0,0.0,64,0.00,,---,0.00,VWS V14.01,2013-08-23 03:55:00,
2013-08-22 22:56:00,79.0,66.2,30.09,SW,231,0.0,0.0,65,0.00,,---,0.00,VWS V14.01,2013-08-23 03:56:00,
2013-08-22 22:57:00,79.0,66.2,30.09,SW,231,0.0,0.0,65,0.00,,---,0.00,VWS V14.01,2013-08-23 03:57:00,
2013-08-22 22:58:00,79.0,66.2,30.09,SW,231,0.0,0.0,65,0.00,,---,0.00,VWS V14.01,2013-08-23 03:58:00,
2013-08-22 22:59:00,79.0,66.2,30.09,SW,231,0.0,0.0,65,0.00,,---,0.00,VWS V14.01,2013-08-23 03:59:00,
2013-08-22 23:00:00,79.0,66.2,30.09,SW,231,0.0,0.0,65,0.00,,---,0.00,VWS V14.01,2013-08-23 04:00:00,
2013-08-22 23:01:00,79.0,66.2,30.09,SW,231,0.0,0.0,65,0.00,,---,0.00,VWS V14.01,2013-08-23 04:01:00,
2013-08-22 23:02:00,79.0,66.2,30.09,SW,231,0.0,0.0,65,0.00,,---,0.00,VWS V14.01,2013-08-23 04:02:00,
2013-08-22 23:03:00,79.0,66.2,30.09,SW,231,0.0,0.0,65,0.00,,---,0.00,VWS V14.01,2013-08-23 04:03:00,
2013-08-22 23:04:00,78.8,66.1,30.09,SW,231,0.0,0.0,65,0.00,,---,0.00,VWS V14.01,2013-08-23 04:04:00,
2013-08-22 23:05:00,78.8,66.1,30.09,SW,231,0.0,0.0,65,0.00,,---,0.00,VWS V14.01,2013-08-23 04:05:00,
2013-08-22 23:06:00,78.8,66.1,30.09,SW,231,0.0,0.0,65,0.00,,---,0.00,VWS V14.01,2013-08-23 04:06:00,
2013-08-22 23:07:00,78.8,66.1,30.09,SW,231,0.0,0.0,65,0.00,,---,0.00,VWS V14.01,2013-08-23 04:07:00,
2013-08-22 23:08:00,78.8,66.1,30.09,SW,231,0.0,0.0,65,0.00,,---,0.00,VWS V14.01,2013-08-23 04:08:00,
2013-08-22 23:09:00,78.8,66.1,30.09,SW,231,0.0,0.0,65,0.00,,---,0.00,VWS V14.01,2013-08-23 04:09:00,
2013-08-22 23:10:00,78.8,66.5,30.09,SW,231,0.0,0.0,66,0.00,,---,0.00,VWS V14.01,2013-08-23 04:10:00,
2013-08-22 23:11:00,78.6,66.3,30.09,SW,231,0.0,0.0,66,0.00,,---,0.00,VWS V14.01,2013-08-23 04:11:00,
2013-08-22 23:12:00,78.6,66.3,30.09,SW,231,0.0,0.0,66,0.00,,---,0.00,VWS V14.01,2013-08-23 04:12:00,
2013-08-22 23:13:00,78.6,66.3,30.09,SW,231,0.0,0.0,66,0.00,,---,0.00,VWS V14.01,2013-08-23 04:13:00,
2013-08-22 23:14:00,78.6,66.3,30.09,SW,231,0.0,0.0,66,0.00,,---,0.00,VWS V14.01,2013-08-23 04:14:00,
2013-08-22 23:15:00,78.6,66.3,30.09,SW,231,0.0,0.0,66,0.00,,---,0.00,VWS V14.01,2013-08-23 04:15:00,
2013-08-22 23:16:00,78.6,66.3,30.09,SW,231,0.0,0.0,66,0.00,,---,0.00,VWS V14.01,2013-08-23 04:16:00,
2013-08-22 23:17:00,78.6,66.8,30.09,SW,231,0.0,0.0,67,0.00,,---,0.00,VWS V14.01,2013-08-23 04:17:00,
2013-08-22 23:18:00,78.6,66.8,30.09,SW,231,0.0,0.0,67,0.00,,---,0.00,VWS V14.01,2013-08-23 04:18:00,
2013-08-22 23:19:00,78.6,66.8,30.06,SW,231,0.0,0.0,67,0.00,,---,0.00,VWS V14.01,2013-08-23 04:19:00,
2013-08-22 23:20:00,78.6,66.3,30.06,SW,231,0.0,0.0,66,0.00,,---,0.00,VWS V14.01,2013-08-23 04:20:00,
2013-08-22 23:21:00,78.6,66.3,30.06,SW,231,0.0,0.0,66,0.00,,---,0.00,VWS V14.01,2013-08-23 04:21:00,
2013-08-22 23:22:00,78.6,66.3,30.06,SW,231,0.0,0.0,66,0.00,,---,0.00,VWS V14.01,2013-08-23 04:22:00,
2013-08-22 23:23:00,78.4,66.2,30.06,SW,231,0.0,0.0,66,0.00,,---,0.00,VWS V14.01,2013-08-23 04:23:00,
2013-08-22 23:24:00,78.4,66.2,30.06,SW,231,0.0,0.0,66,0.00,,---,0.00,VWS V14.01,2013-08-23 04:24:00,
2013-08-22 23:25:00,78.4,66.2,30.06,SW,231,0.0,0.0,66,0.00,,---,0.00,VWS V14.01,2013-08-23 04:25:00,
2013-08-22 23:26:00,78.4,66.2,30.06,SW,231,0.0,0.0,66,0.00,,---,0.00,VWS V14.01,2013-08-23 04:26:00,
2013-08-22 23:27:00,78.4,66.2,30.06,SW,231,0.0,0.0,66,0.00,,---,0.00,VWS V14.01,2013-08-23 04:27:00,
2013-08-22 23:28:00,78.4,66.2,30.06,SW,231,0.0,0.0,66,0.00,,---,0.00,VWS V14.01,2013-08-23 04:28:00,
2013-08-22 23:29:00,78.4,66.2,30.06,SW,231,0.0,0.0,66,0.00,,---,0.00,VWS V14.01,2013-08-23 04:29:00,
2013-08-22 23:30:00,78.4,66.2,30.06,SW,231,0.0,0.0,66,0.00,,---,0.00,VWS V14.01,2013-08-23 04:30:00,
2013-08-22 23:31:00,78.4,66.2,30.06,SW,231,0.0,0.0,66,0.00,,---,0.00,VWS V14.01,2013-08-23 04:31:00,
2013-08-22 23:32:00,78.4,66.2,30.06,SW,231,0.0,0.0,66,0.00,,---,0.00,VWS V14.01,2013-08-23 04:32:00,
2013-08-22 23:33:00,78.4,66.2,30.06,SW,231,0.0,0.0,66,0.00,,---,0.00,VWS V14.01,2013-08-23 04:33:00,
2013-08-22 23:34:00,78.4,66.2,30.06,SW,231,0.0,0.0,66,0.00,,---,0.00,VWS V14.01,2013-08-23 04:34:00,
2013-08-22 23:35:00,78.4,66.2,30.09,SW,231,0.0,0.0,66,0.00,,---,0.00,VWS V14.01,2013-08-23 04:35:00,
2013-08-22 23:36:00,78.3,66.0,30.09,SW,231,0.0,0.0,66,0.00,,---,0.00,VWS V14.01,2013-08-23 04:36:00,
2013-08-22 23:37:00,78.3,65.5,30.09,SW,231,0.0,0.0,65,0.00,,---,0.00,VWS V14.01,2013-08-23 04:37:00,
2013-08-22 23:38:00,78.3,65.5,30.09,SW,231,0.0,0.0,65,0.00,,---,0.00,VWS V14.01,2013-08-23 04:38:00,
2013-08-22 23:39:00,78.3,65.5,30.09,SW,231,0.0,0.0,65,0.00,,---,0.00,VWS V14.01,2013-08-23 04:39:00,
2013-08-22 23:40:00,78.3,66.0,30.09,SW,231,0.0,0.0,66,0.00,,---,0.00,VWS V14.01,2013-08-23 04:40:00,
2013-08-22 23:41:00,78.3,66.0,30.09,SW,231,0.0,0.0,66,0.00,,---,0.00,VWS V14.01,2013-08-23 04:41:00,
2013-08-22 23:42:00,78.3,66.0,30.09,SW,231,0.0,0.0,66,0.00,,---,0.00,VWS V14.01,2013-08-23 04:42:00,
2013-08-22 23:43:00,78.3,66.0,30.09,SW,231,0.0,0.0,66,0.00,,---,0.00,VWS V14.01,2013-08-23 04:43:00,
2013-08-22 23:44:00,78.3,66.0,30.09,SW,231,0.0,0.0,66,0.00,,---,0.00,VWS V14.01,2013-08-23 04:44:00,
2013-08-22 23:45:00,78.1,65.8,30.09,SW,231,0.0,0.0,66,0.00,,---,0.00,VWS V14.01,2013-08-23 04:45:00,
2013-08-22 23:46:00,78.1,65.8,30.09,SW,231,0.0,0.0,66,0.00,,---,0.00,VWS V14.01,2013-08-23 04:46:00,
2013-08-22 23:47:00,78.1,66.2,30.09,SW,231,0.0,0.0,67,0.00,,---,0.00,VWS V14.01,2013-08-23 04:47:00,
2013-08-22 23:48:00,78.1,66.2,30.09,SW,231,0.0,0.0,67,0.00,,---,0.00,VWS V14.01,2013-08-23 04:48:00,
2013-08-22 23:49:00,78.1,66.2,30.09,SW,231,0.0,0.0,67,0.00,,---,0.00,VWS V14.01,2013-08-23 04:49:00,
2013-08-22 23:50:00,78.1,66.2,30.09,SW,231,0.0,0.0,67,0.00,,---,0.00,VWS V14.01,2013-08-23 04:50:00,
2013-08-22 23:51:00,78.1,66.2,30.09,SW,231,0.0,0.0,67,0.00,,---,0.00,VWS V14.01,2013-08-23 04:51:00,
2013-08-22 23:52:00,78.1,66.2,30.09,SW,231,0.0,0.0,67,0.00,,---,0.00,VWS V14.01,2013-08-23 04:52:00,
2013-08-22 23:53:00,78.1,66.2,30.09,SW,231,0.0,0.0,67,0.00,,---,0.00,VWS V14.01,2013-08-23 04:53:00,
2013-08-22 23:54:00,78.1,66.2,30.09,SW,231,0.0,0.0,67,0.00,,---,0.00,VWS V14.01,2013-08-23 04:54:00,
2013-08-22 23:55:00,78.1,66.2,30.09,SW,231,0.0,0.0,67,0.00,,---,0.00,VWS V14.01,2013-08-23 04:55:00,
2013-08-22 23:56:00,77.9,66.1,30.09,SW,231,0.0,0.0,67,0.00,,---,0.00,VWS V14.01,2013-08-23 04:56:00,
2013-08-22 23:57:00,77.9,66.5,30.09,SW,231,0.0,0.0,68,0.00,,---,0.00,VWS V14.01,2013-08-23 04:57:00,
2013-08-22 23:58:00,77.9,66.5,30.09,SW,231,0.0,0.0,68,0.00,,---,0.00,VWS V14.01,2013-08-23 04:58:00,
2013-08-22 23:59:00,77.9,66.5,30.09,SW,231,0.0,0.0,68,0.00,,---,0.00,VWS V14.01,2013-08-23 04:59:00,